Location: *
(49.0044°N, 9.5056°E)
Time: 14:01:15
(UTC+00:00)

Cosmos 1892 Rocket - Pass Details

Date: 22 September 2019
Orbit: 606 x 634 km, 82.5° (Epoch: 14 October)

Event Time Altitude Azimuth Distance (km) Brightness Sun altitude
Rises 19:01:35 0° 346° (NNW) 2,928 7.5 -17.0°
Reaches altitude 10° 19:03:52 10° 343° (NNW) 2,012 6.7 -17.3°
Maximum altitude 19:08:13 56° 265° (W) 744 4.2 -18.0°
Drops below altitude 10° 19:12:31 10° 188° (S) 1,978 6.0 -18.7°
Enters shadow 19:13:50 - 185° (S) 2,504 6.5 -18.9°
